Time,TemperatureF,DewpointF,PressureIn,WindDirection,WindDirectionDegrees,WindSpeedMPH,WindSpeedGustMPH,Humidity,HourlyPrecipIn,Conditions,Clouds,dailyrainin,SolarRadiationWatts/m^2,SoftwareType,DateUTC
2013-07-24 02:43:00,68.0,25.0,-100.00,NW,322,2.0,3.0,20,0.00,,,0.00,0.000000,,2013-07-24 09:43:00,
2013-07-24 05:42:00,66.0,24.0,-100.00,WNW,282,1.0,4.0,20,-99.99,,,0.00,0.000000,,2013-07-24 12:42:00,
2013-07-24 05:52:00,66.0,24.0,-100.00,WNW,282,1.0,4.0,20,-99.99,,,0.00,0.000000,,2013-07-24 12:52:00,
2013-07-24 06:02:00,66.0,24.0,-100.00,WNW,282,1.0,4.0,20,-99.99,,,0.00,0.000000,,2013-07-24 13:02:00,
2013-07-24 09:12:00,74.0,29.0,-100.00,ENE,59,2.0,4.0,19,-99.99,,,0.00,171.000000,,2013-07-24 16:12:00,
2013-07-24 09:43:00,78.0,39.0,-100.00,NE,52,2.0,5.0,25,0.00,,,0.00,434.000000,,2013-07-24 16:43:00,
2013-07-24 09:53:00,78.0,39.0,-100.00,NE,52,2.0,5.0,25,0.00,,,0.00,434.000000,,2013-07-24 16:53:00,
2013-07-24 10:02:00,78.0,39.0,-100.00,NE,52,2.0,5.0,25,0.00,,,0.00,434.000000,,2013-07-24 17:02:00,
2013-07-24 10:12:00,78.0,39.0,-100.00,NE,52,2.0,5.0,25,0.00,,,0.00,434.000000,,2013-07-24 17:12:00,
2013-07-24 10:43:00,83.0,27.0,-100.00,NE,56,1.0,7.0,13,0.00,,,0.00,674.000000,,2013-07-24 17:43:00,
2013-07-24 10:53:00,83.0,27.0,-100.00,NE,56,1.0,7.0,13,0.00,,,0.00,674.000000,,2013-07-24 17:53:00,
2013-07-24 11:02:00,83.0,27.0,-100.00,NE,56,1.0,7.0,13,0.00,,,0.00,674.000000,,2013-07-24 18:02:00,
2013-07-24 11:12:00,83.0,27.0,-100.00,NE,56,1.0,7.0,13,0.00,,,0.00,674.000000,,2013-07-24 18:12:00,
2013-07-24 11:43:00,87.0,30.0,-100.00,ESE,121,2.0,5.0,13,0.00,,,0.00,809.000000,,2013-07-24 18:43:00,
2013-07-24 11:52:00,87.0,30.0,-100.00,ESE,121,2.0,5.0,13,0.00,,,0.00,809.000000,,2013-07-24 18:52:00,
2013-07-24 12:02:00,87.0,30.0,-100.00,ESE,121,2.0,5.0,13,0.00,,,0.00,809.000000,,2013-07-24 19:02:00,
2013-07-24 12:12:00,87.0,30.0,-100.00,ESE,121,2.0,5.0,13,0.00,,,0.00,809.000000,,2013-07-24 19:12:00,
2013-07-24 12:43:00,87.0,32.0,-100.00,ENE,69,3.0,9.0,14,0.00,,,0.00,893.000000,,2013-07-24 19:43:00,
2013-07-24 12:53:00,87.0,32.0,-100.00,ENE,69,3.0,9.0,14,0.00,,,0.00,893.000000,,2013-07-24 19:53:00,
2013-07-24 13:02:00,87.0,32.0,-100.00,ENE,69,3.0,9.0,14,0.00,,,0.00,893.000000,,2013-07-24 20:02:00,
2013-07-24 13:13:00,87.0,32.0,-100.00,ENE,69,3.0,9.0,14,0.00,,,0.00,893.000000,,2013-07-24 20:13:00,
2013-07-24 13:43:00,90.0,33.0,-100.00,SSE,164,2.0,10.0,13,0.00,,,0.00,934.000000,,2013-07-24 20:43:00,
2013-07-24 13:53:00,90.0,33.0,-100.00,SSE,164,2.0,10.0,13,0.00,,,0.00,934.000000,,2013-07-24 20:53:00,
2013-07-24 14:12:00,90.0,33.0,-100.00,SSE,164,2.0,10.0,13,0.00,,,0.00,934.000000,,2013-07-24 21:12:00,
2013-07-24 14:44:00,93.0,38.0,-100.00,SSW,192,3.0,9.0,15,0.00,,,0.00,926.000000,,2013-07-24 21:44:00,
2013-07-24 14:52:00,93.0,38.0,-100.00,SSW,192,3.0,9.0,15,0.00,,,0.00,926.000000,,2013-07-24 21:52:00,
2013-07-24 16:43:00,93.0,37.0,-100.00,SW,228,3.0,13.0,14,-99.99,,,0.00,778.000000,,2013-07-24 23:43:00,
2013-07-24 16:52:00,93.0,37.0,-100.00,SW,228,3.0,13.0,14,-99.99,,,0.00,778.000000,,2013-07-24 23:52:00,
2013-07-24 17:53:00,90.0,31.0,-100.00,WSW,250,5.0,13.0,12,-99.99,,,0.00,637.000000,,2013-07-25 00:53:00,